MST,Max TemperatureF,Mean TemperatureF,Min TemperatureF,Max Dew PointF,MeanDew PointF,Min DewpointF,Max Humidity, Mean Humidity, Min Humidity, Max Sea Level PressureIn, Mean Sea Level PressureIn, Min Sea Level PressureIn, Max VisibilityMiles, Mean VisibilityMiles, Min VisibilityMiles, Max Wind SpeedMPH, Mean Wind SpeedMPH, Max Gust SpeedMPH,PrecipitationIn, CloudCover, Events, WindDirDegrees
2011-11-1,55,36,16,27,18,3,86,60,20,30.14,29.98,29.81,10,9,1,25,11,36,0.00,3,Snow,293
2011-11-2,41,24,7,12,7,1,84,51,24,30.45,30.34,30.10,10,10,10,17,10,23,0.00,0,,42
2011-11-3,43,22,3,12,7,-1,80,49,27,30.39,30.20,29.89,10,10,10,18,7,25,0.00,0,,182
2011-11-4,50,32,19,32,23,9,96,68,28,29.86,29.64,29.43,10,7,0,25,11,36,0.20,5,Fog-Rain-Snow,167
2011-11-5,30,26,21,27,20,10,93,78,43,29.88,29.63,29.36,10,8,2,22,13,30,0.01,7,Snow,306
2011-11-6,28,17,6,25,18,2,100,84,69,30.01,29.93,29.88,10,4,1,15,6,,0.03,7,Snow,146
2011-11-7,28,24,16,25,22,13,96,88,80,30.10,29.92,29.85,10,3,0,16,5,23,0.28,7,Fog-Snow,330
2011-11-8,32,18,3,22,12,0,92,82,61,30.48,30.28,30.10,10,10,9,13,7,,0.00,0,,310
2011-11-9,37,18,-2,18,5,-8,92,75,33,30.72,30.54,30.39,10,8,0,10,5,,0.00,1,Fog,253
2011-11-10,37,18,-2,16,6,-8,84,64,31,30.73,30.51,30.29,10,10,10,10,4,,0.00,0,,204
2011-11-11,37,24,12,24,16,6,88,65,36,30.25,30.07,29.90,10,10,10,12,5,,0.00,4,,177
2011-11-12,41,34,26,22,21,21,81,78,75,29.97,29.84,29.76,10,10,10,21,10,30,0.00,4,,222
2011-11-13,42,32,19,32,27,17,92,74,58,29.97,29.83,29.73,10,9,1,21,12,29,0.00,5,Snow,263
2011-11-14,46,32,19,24,20,15,89,68,35,29.97,29.90,29.81,10,10,10,14,6,21,0.00,1,,276
2011-11-15,46,32,17,26,20,14,88,63,39,30.05,29.97,29.90,10,10,10,18,8,22,0.00,1,,298
2011-11-16,42,30,18,18,14,2,84,61,19,30.32,30.19,30.01,10,10,10,12,5,,0.00,0,,298
2011-11-17,45,30,15,22,17,11,85,66,35,30.30,30.11,29.87,10,10,10,12,5,,0.00,0,,200
2011-11-18,46,36,25,24,21,19,78,57,34,29.85,29.69,29.52,10,10,10,24,10,39,0.00,0,,183
2011-11-19,43,34,24,,,,,,,29.85,29.68,29.55,10,10,10,18,11,28,0.00,5,,215
2011-11-20,41,36,30,28,26,23,79,66,51,30.02,29.91,29.75,10,6,0,13,7,20,0.02,7,Fog-Snow,150
2011-11-21,39,32,21,32,28,19,100,84,65,30.27,30.05,29.88,10,10,9,10,5,,0.00,6,,183
2011-11-22,46,32,18,28,22,15,92,73,41,30.38,30.28,30.22,10,10,10,13,6,,0.00,0,,229
2011-11-23,46,32,18,26,21,15,92,70,40,30.34,30.20,30.04,10,10,10,14,7,,0.00,0,,208
2011-11-24,45,32,19,26,21,16,88,70,40,30.11,30.01,29.92,10,10,10,14,6,22,0.00,0,,205
2011-11-25,45,32,19,28,20,14,88,50,31,30.22,30.08,29.93,10,10,10,25,9,37,0.00,0,,328
2011-11-26,46,32,17,16,10,1,81,49,16,30.62,30.46,30.21,10,10,10,24,10,33,0.00,0,,331
2011-11-27,51,34,16,20,15,12,84,56,25,30.62,30.49,30.37,10,10,10,13,8,,0.00,0,,226
2011-11-28,57,39,21,21,17,9,85,49,16,30.44,30.28,30.19,10,10,10,10,6,,0.00,0,Snow,261
2011-11-29,53,36,16,21,18,15,96,62,24,30.38,30.26,30.19,10,10,10,14,6,,0.00,0,,260
2011-11-30,51,32,14,25,19,12,100,73,21,30.17,29.89,29.69,10,9,2,17,8,24,0.00,4,Snow,311